Regional Weather Roundup
Issued by NWS Albany, NY

Home | Current Version | Previous Version | Graphics & Text | Print | Product List | Glossary Off
Versions: 1 2 3 4 5 6 7 8 9 10 11 12 13 14 15 16 17 18 19 20 21 22 23 24 25 26 27 28 29 30 31 32 33 34 35 36 37 38 39 40 41 42 43 44 45 46 47 48 49 50

000
ASUS41 KALY 240410
RWRALY

NEW YORK STATE HOURLY WEATHER ROUNDUP
NATIONAL WEATHER SERVICE ALBANY NY
1200 AM EDT SUN MAY 24 2015

NOTE: "FAIR" INDICATES FEW OR NO CLOUDS BELOW 12,000 FEET WITH NO
SIGNIFICANT WEATHER AND/OR NO OBSTRUCTIONS TO VISIBILITY.

NYZ032-033-038>043-046>054-057>066-NYZ062>081-240500-
EAST


CITY           SKY/WX    TMP DP  RH WIND       PRES   REMARKS
ALBANY         CLEAR     46  34  62 S6        30.29S
GLENS FALLS    CLEAR     50  32  50 S5        30.27R
POUGHKEEPSIE   CLEAR     46  37  71 CALM      30.32R
MONTGOMERY     CLEAR     47  38  71 S3        30.33R
WHITE PLAINS   CLEAR     51  45  79 CALM      30.34S
ISLIP          CLEAR     52  46  80 SW5       30.35F
NEW YORK CITY  PTCLDY    59  44  57 S13       30.35S
CENTRAL PARK   CLEAR     58  41  53 VRB3      30.38S
$$

NYZ005>009-017-018-044>046-055-056-240500-
CENTRAL


CITY           SKY/WX    TMP DP  RH WIND       PRES   REMARKS
FULTON         CLEAR     52  32  46 SW6       30.26S
SYRACUSE       PTCLDY    54  32  43 S8        30.27R
ROME           CLEAR     44  37  76 CALM      30.29S
ELMIRA         CLEAR     41  36  82 W3        30.33S
BINGHAMTON     CLEAR     53  31  42 SW8       30.32S
MONTICELLO     CLEAR     43  37  81 CALM      30.35S
$$

NYZ026>034-041>043-240500-
NORTH


CITY           SKY/WX    TMP DP  RH WIND       PRES   REMARKS
WATERTOWN      CLEAR     56  27  32 SW12      30.23R
FORT DRUM      NOT AVBL
MASSENA        PTCLDY    54  28  36 SW14      30.16F
SARANAC LAKE   CLEAR     45  27  49 SW8       30.20S
PLATTSBURGH    PTCLDY    57  23  26 S9        30.17S
$$

NYZ001>004-010>016-019>021-240500-
WEST


CITY           SKY/WX    TMP DP  RH WIND       PRES   REMARKS
NIAGARA FALLS  CLEAR     52  30  43 SW10      30.28S
BUFFALO        PTCLDY    53  30  41 S8        30.29F
DUNKIRK        CLEAR     53  29  39 SW8       30.31R
JAMESTOWN      CLEAR     52  30  43 S5        30.34S
WELLSVILLE     CLEAR     53  31  42 SW6       30.35F
ROCHESTER      CLEAR     52  26  36 SW8       30.28F
PENN YAN       CLEAR     52  39  61 S7        30.30S
$$

             KEY
       WCI = WIND CHILL INDEX
       VSB = VISIBILITY
       HX  = HEAT INDEX
$$


USA.gov is the U.S. government's official web portal to all federal, state and local government web resources and services.